Location: *
(58.7167°N, 26.1833°E)
Time: 10:34:13
(UTC+00:00)

Meteor 1-11 - Pass Details

Date: 25 August 2019
Orbit: 840 x 887 km, 81.2° (Epoch: 19 September)

Event Time Altitude Azimuth Distance (km) Brightness Sun altitude
Rises 22:55:28 0° 343° (NNW) 3,436 8.5 -20.3°
Reaches altitude 10° 22:57:57 10° 347° (NNW) 2,490 7.6 -20.2°
Maximum altitude 23:03:33 64° 69° (ENE) 934 4.5 -20.1°
Enters shadow 23:06:53 25° 145° (SE) 1,661 5.4 -20.0°
